Bodensee (Kressbronn): 6,1°C  -  Teich der Wetterzentrale Bad Schussenried: 5,0°C |  Schneehöhe Kreuzthal-Steinberg (930 m ü. NN): 10 cm   
13.12.2019Höhe
ü. NN
ZeitTemperatur (°C)Nieder-
schlag
Luft-
feuchte
Luft-
druck
Wind
StationaktuellMinimumMaximumaktuellMaximum
Aldingen654 m02:11-0,5-1,0 (21:41)-0,2 (11:26)0,2 l/m²90%991,314,8 km/h (3 Bft) SO22,2 km/h (4 Bft) O-SO (01:41)
Allmannsweiler625 m02:10-1,4-3,1 (01:00)-1,4 (02:10)0,0 l/m²92%991,18,0 km/h (2 Bft) SW11,3 km/h (2 Bft) W-SW (01:45)
Allmendingen541 m02:10-3,9-4,7 (23:50)-3,9 (14:25)0,0 l/m²93%991,60,0 km/h (0 Bft) O-NO22,5 km/h (4 Bft) W-SW (14:20)
Altshausen574 m02:10-3,3-4,6 (00:05)-3,2 (01:59)0,0 l/m²85%990,53,2 km/h (1 Bft) O-NO6,4 km/h (2 Bft) O-NO (01:53)
Amstetten-Reutti663 m02:10-3,4-4,8 (01:10)-3,4 (13:50)0,0 l/m²96%991,212,9 km/h (3 Bft) O-SO19,3 km/h (3 Bft) W-SW (14:10)
Amtzell-Grenis677 m02:10-1,4-2,4 (00:40)-1,1 (01:45)0,0 l/m²67%993,312,9 km/h (3 Bft) S20,9 km/h (4 Bft) S (01:25)
Aulendorf570 m02:10-2,4-3,0 (00:44)-2,3 (02:09)0,0 l/m²92%991,00,0 km/h (0 Bft) W4,8 km/h (1 Bft) O (00:14)
Bad Krozingen233 m02:106,10,7 (22:25)6,1 (02:10)0,4 l/m²80%989,229,7 km/h (5 Bft) S-SO37,9 km/h (5 Bft) SW (08:05)
Bad Saulgau595 m02:10-2,7-3,4 (00:45)-2,7 (14:05)0,0 l/m²93%990,20,0 km/h (0 Bft) SW27,4 km/h (4 Bft) N-NW (10:25)
Bad Saulgau-Lampertsweiler627 m02:10-2,6-3,1 (01:15)-2,2 (00:05)0,0 l/m²88%993,70,0 km/h (0 Bft) S-SO0,0 km/h (0 Bft) S-SO (00:00)
Bad Schussenried572 m02:10-3,2-3,8 (00:00)-3,2 (02:05)0,0 l/m²95%989,90,0 km/h (0 Bft) W-SW0,0 km/h (0 Bft) W-SW (00:00)
Bergatreute615 m02:10-1,7-1,8 (00:10)-1,6 (00:00)0,0 l/m²88%991,13,2 km/h (1 Bft) SO8,0 km/h (2 Bft) O (00:55)
Biberach (Riss), Boehringer533 m02:10-3,0-3,7 (01:50)-2,9 (02:10)0,0 l/m²98%992,80,4 km/h (0 Bft) O-SO5,0 km/h (1 Bft) W-NW (00:40)
Biberach (Riss), Realschule553 m02:10-3,3-3,4 (01:35)-2,7 (00:00)0,0 l/m²94%992,53,2 km/h (1 Bft) SW6,4 km/h (2 Bft) S-SO (00:00)
Burgrieden523 m02:10-3,4-3,4 (00:30)-3,0 (00:00)0,0 l/m²90%991,50,0 km/h (0 Bft) O6,4 km/h (2 Bft) S-SO (00:15)
Burgrieden-Hochstetten510 m02:10-3,5-3,9 (01:10)-3,0 (14:05)0,0 l/m²94%991,80,0 km/h (0 Bft) S22,5 km/h (4 Bft) W-SW (13:45)
Ebersbach579 m02:10-3,1-3,8 (01:20)-2,8 (00:00)0,0 l/m²95%992,00,0 km/h (0 Bft) N-NO4,8 km/h (1 Bft) O (02:00)
Ebersbach-Boos605 m02:10-3,0-3,5 (01:35)-2,7 (00:00)0,0 l/m²95%991,90,0 km/h (0 Bft) O0,0 km/h (0 Bft) O-SO (00:00)
Ebersbach-Menzenweiler661 m02:10-1,8-1,9 (01:40)-1,0 (00:45)0,0 l/m²89%991,88,0 km/h (2 Bft) S-SO17,7 km/h (3 Bft) O-SO (00:15)
Erlenmoos645 m02:10-2,6-2,7 (01:20)-2,0 (00:20)0,0 l/m²92%991,711,3 km/h (2 Bft) S-SW17,7 km/h (3 Bft) S (00:15)
Ertingen569 m02:10-2,9-3,1 (01:40)-2,8 (00:40)0,0 l/m²95%991,31,6 km/h (1 Bft) SO3,2 km/h (1 Bft) SO (00:10)
Friedrichshafen405 m02:100,0-0,4 (01:00)0,4 (14:40)0,0 l/m²85%992,04,8 km/h (1 Bft) W-SW30,6 km/h (5 Bft) W-NW (12:40)
Günzburg443 m02:10-3,9-3,9 (02:00)-2,7 (00:00)0,0 l/m²92%989,30,0 km/h (0 Bft) S0,0 km/h (0 Bft) S (00:00)
Hochdorf-Appendorf537 m02:10-4,1-5,0 (00:10)-4,1 (02:10)0,0 l/m²79%999,13,2 km/h (1 Bft) S8,0 km/h (2 Bft) NW (00:35)
Höchsten802 m02:10-1,7-2,9 (01:00)-1,7 (02:00)0,0 l/m²89%989,69,7 km/h (2 Bft) SW14,5 km/h (3 Bft) S-SW (01:55)
Horgenzell618 m02:10-1,8-2,2 (00:35)-1,6 (00:00)0,0 l/m²87%990,33,2 km/h (1 Bft) S-SW6,4 km/h (2 Bft) O-SO (00:50)
Hoßkirch632 m02:10-3,1-4,4 (00:20)-3,0 (02:10)0,0 l/m²95%990,40,0 km/h (0 Bft) N6,4 km/h (2 Bft) N (01:15)
Isny, Am Dreifingerbach695 m02:10-5,3-7,2 (00:30)-5,3 (02:10)0,0 l/m²95%991,89,7 km/h (2 Bft) O-SO9,7 km/h (2 Bft) O (02:10)
Isny, Weidachweg706 m02:10-5,1-7,0 (00:50)-5,0 (02:10)0,0 l/m²88%994,18,0 km/h (2 Bft) SO8,0 km/h (2 Bft) SO (02:00)
Kappel-Grafenhausen163 m02:052,40,1 (22:35)2,4 (13:55)0,0 l/m²90%987,017,7 km/h (3 Bft) S33,8 km/h (5 Bft) S (12:10)
Kirchberg an der Iller584 m02:10-2,7-3,0 (01:20)-2,4 (03:00)0,0 l/m²87%983,40,0 km/h (0 Bft) S-SO22,2 km/h (4 Bft) O-SO (12:40)
Kißlegg-Staibshof709 m02:10-3,4-3,7 (00:00)-3,4 (02:05)0,0 l/m²92%991,90,0 km/h (0 Bft) S-SO0,0 km/h (0 Bft) SW (00:00)
Kressbronn398 m02:121,41,1 (00:14)2,1 (00:50)0,0 l/m²86%990,90,0 km/h (0 Bft) W29,0 km/h (5 Bft) W (00:42)
Kreuzthal-Steinberg-Alpe930 m02:10-5,0-5,5 (01:50)-4,9 (02:10)0,0 l/m²100%996,51,4 km/h (1 Bft) SW6,5 km/h (2 Bft) W-NW (00:00)
Kreuzthal-Steinberggipfel1040 m02:00-3,4-4,4 (00:10)-3,2 (01:50)-81%996,53,2 km/h (1 Bft) SW12,2 km/h (3 Bft) S (00:00)
Kristberg im Montafon (AT)1425 m02:10-2,3-5,6 (00:00)-2,3 (02:10)0,0 l/m²58%994,89,7 km/h (2 Bft) S-SO9,7 km/h (2 Bft) N-NO (00:15)
Laupheim500 m02:10-2,9-3,5 (00:05)-2,9 (02:10)0,0 l/m²92%991,00,0 km/h (0 Bft) O-SO4,8 km/h (1 Bft) O-SO (00:45)
Leutkirch-Heggelbach670 m02:10-5,6-6,2 (01:30)-5,6 (00:00)0,0 l/m²93%991,20,0 km/h (0 Bft) W-SW1,6 km/h (1 Bft) SW (00:10)
Lindau-Insel420 m02:102,11,5 (00:40)2,3 (15:10)0,0 l/m²84%991,43,2 km/h (1 Bft) W-NW27,4 km/h (4 Bft) S-SO (21:00)
Lindau-Stadt412 m02:101,60,9 (20:10)1,6 (14:45)0,0 l/m²81%991,81,6 km/h (1 Bft) O-SO24,1 km/h (4 Bft) O-SO (14:30)
Maierhöfen im Allgäu733 m02:10-7,6-10,2 (00:40)-7,6 (02:10)0,0 l/m²94%993,03,2 km/h (1 Bft) W-SW3,2 km/h (1 Bft) W-SW (00:25)
Maselheim543 m02:10-3,2-3,7 (00:50)-2,8 (15:20)0,0 l/m²91%991,83,2 km/h (1 Bft) S29,0 km/h (5 Bft) SW (12:20)
Maselheim-Sulmingen548 m02:10-3,3-4,1 (00:15)-3,3 (15:20)0,0 l/m²94%993,10,0 km/h (0 Bft) O30,6 km/h (5 Bft) W (12:45)
Mietingen-Baltringen528 m02:10-3,2-3,3 (01:50)-2,7 (00:00)0,0 l/m²90%993,20,0 km/h (0 Bft) W6,4 km/h (2 Bft) O-SO (00:35)
Mittelbiberach577 m02:10-3,4-4,3 (00:10)-3,3 (15:10)0,0 l/m²93%992,83,2 km/h (1 Bft) SW25,7 km/h (4 Bft) W-SW (13:30)
Neresheim552 m02:00-3,2-3,2 (02:00)-2,0 (00:00)0,0 l/m²100%988,36,5 km/h (2 Bft) SO6,5 km/h (2 Bft) SO (02:00)
Neukirch570 m02:10-2,4-2,6 (23:00)-0,7 (14:55)0,0 l/m²91%992,03,2 km/h (1 Bft) NO30,6 km/h (5 Bft) W-SW (12:10)
Ochsenhausen, Birkenstraße613 m02:10-3,2-3,4 (01:50)-2,2 (15:10)0,0 l/m²86%992,20,0 km/h (0 Bft) N0,0 km/h (0 Bft) N (03:00)
Ochsenhausen, Unt. Wiesen575 m02:10-3,4-3,8 (01:20)-2,3 (00:00)0,0 l/m²92%993,24,8 km/h (1 Bft) S6,4 km/h (2 Bft) S (01:50)
Ostrach619 m02:10-2,2-3,8 (00:45)-2,2 (02:05)0,0 l/m²96%990,01,6 km/h (1 Bft) S4,8 km/h (1 Bft) S (00:55)
Ravensburg, Goethestraße428 m02:20-1,3-1,6 (00:50)-1,3 (00:25)0,0 l/m²93%991,00,0 km/h (0 Bft) N-NO3,2 km/h (1 Bft) N-NO (02:10)
Ravensburg, Springerstraße441 m02:10-0,6-1,4 (00:00)-0,6 (02:10)0,0 l/m²85%990,10,0 km/h (0 Bft) O-NO0,0 km/h (0 Bft) O-NO (00:00)
Ravensburg-Wernsreute511 m02:10-1,6-2,4 (23:45)-1,6 (14:35)0,0 l/m²92%993,94,8 km/h (1 Bft) O30,6 km/h (5 Bft) W-SW (11:45)
Reichenbach an der Fils343 m02:101,0-0,6 (00:20)1,3 (01:35)0,0 l/m²79%991,99,7 km/h (2 Bft) O-SO19,3 km/h (3 Bft) O-SO (00:55)
Reinstetten559 m02:10-3,8-3,9 (01:45)-2,7 (00:00)0,0 l/m²92%992,40,0 km/h (0 Bft) W-SW8,0 km/h (2 Bft) SW (00:10)
Riedlingen530 m02:10-2,9-3,4 (01:15)-2,9 (02:05)0,0 l/m²96%991,70,0 km/h (0 Bft) O-SO0,0 km/h (0 Bft) S-SW (00:00)
Rißtissen489 m02:10-2,7-3,0 (00:45)-2,7 (00:00)0,0 l/m²94%989,10,0 km/h (0 Bft) S-SO0,0 km/h (0 Bft) S-SW (00:00)
Schemmerhofen520 m02:10-3,4-3,7 (01:25)-3,2 (00:00)0,0 l/m²96%991,30,0 km/h (0 Bft) O-SO4,8 km/h (1 Bft) O-SO (00:35)
Silbertal im Montafon (AT)884 m02:10-3,3-6,5 (00:00)-3,3 (02:10)0,0 l/m²96%994,73,2 km/h (1 Bft) O-NO6,4 km/h (2 Bft) O-NO (01:00)
Tettnang466 m02:100,90,8 (00:05)1,0 (01:05)0,0 l/m²80%991,54,8 km/h (1 Bft) O-SO16,1 km/h (3 Bft) SO (00:05)
Tuttlingen662 m02:08-2,2-4,2 (00:13)-1,9 (01:53)0,0 l/m²83%994,23,1 km/h (1 Bft) NO3,1 km/h (1 Bft) NO (02:08)
Tuttlingen, Möhringer-Vorstadt711 m02:10-1,8-3,8 (23:40)-1,8 (13:50)0,0 l/m²95%991,18,0 km/h (2 Bft) SW19,3 km/h (3 Bft) W (13:50)
Ummendorf547 m02:10-3,3-3,9 (00:20)-2,4 (00:00)0,0 l/m²86%992,90,0 km/h (0 Bft) S6,4 km/h (2 Bft) S (02:05)
Ummendorf-Fischbach558 m02:10-3,4-4,3 (00:05)-3,4 (02:10)0,0 l/m²86%992,64,8 km/h (1 Bft) O-SO6,4 km/h (2 Bft) S (00:40)
Waldburg707 m02:10-1,5-2,3 (00:55)-1,5 (02:10)0,0 l/m²84%991,40,0 km/h (0 Bft) N9,7 km/h (2 Bft) N (00:10)
Waltenhofen im Allgäu720 m02:10-5,4-7,0 (00:25)-5,4 (01:55)0,0 l/m²93%991,94,8 km/h (1 Bft) S30,6 km/h (5 Bft) S (13:05)
Weingarten500 m02:10-1,2-2,1 (00:00)-1,2 (02:10)0,0 l/m²92%991,20,0 km/h (0 Bft) SO1,6 km/h (1 Bft) W-NW (00:25)
Winterlingen785 m02:00-3,3-5,2 (00:15)-3,3 (02:00)0,0 l/m²98%990,35,0 km/h (1 Bft) S-SO5,0 km/h (1 Bft) S-SO (02:00)

niederschlagsdatenbank | info | login - erfassung

Sollten Sie Interesse haben, an der Niederschlagsdatenbank teilzunehmen, finden Sie > hier < weitere Informationen.
Datum: . . Kalender
Anmerkung:0,0 = nicht messbarer Niederschlag
 -  = kein Niederschlag
 k  = kumulierter Niederschlag

< 24.08.201926.08.2019 >


Niederschlagswerte vom 25.08.2019    -    derzeit 110 Stationen

Die Niederschlagswerte des gewählten Tages lassen sich durch Klicken auf das Datum sortieren.
Die Angaben sind in l/m².

Station22.08.23.08.24.08.25.08.26.08.27.08.28.08.Bemerkung 25.08.
Aichstetten Ulmenstraße 7-------
Aichstetten-Nestbaum Nestbaum-------
Albbruck Furmisstr. 18-------
Frühnebel, ab 11°° Uhr Sonne pur +30°C Nachts +16°C
Bodennebel
Allmendingen Querqueviller Ring 6-------
Amstetten-Reutti Gassenäcker 13-------
Aulendorf Steinenbacher Weg 33-------
Aulendorf-Blönried Heuweg 32------5,6
Bad Bellingen Rheinstraße 76-------
Bad Buchau Hanfweiher 193,0------
Bad Saulgau Walserweg-------
Bad Saulgau-Hochberg Lampertsweiler Straße 120,0------
Bad Schussenried Konradstraße------0,0
Bodennebel
Bad Schussenried Lortzingstrasse-------
Bad Schussenried Klosterstraße-------
Bad Schussenried Theodor-Storm-Strasse-------
Bad Schussenried-Hopferbach Unterer Öschweg 16/1-------
Bad Schussenried-Lufthütte Hauptgasse 17-------
Bad Schussenried-Sattenbeuren Ortsstraße 7-------
Bad Schussenried-Schwaigfurt Schwaigfurt 2-------
Bad Waldsee-Haisterkirch Zur Spitzenkapelle 1-------
+11,5/+27°C, sonniger Sommer-sonntag
Bad Wurzach-Seibranz Kimpflerhof 2 -------
Baienfurt Untere Bergstrasse 7-------
Balzheim Hinterm Liess 19-------
Berg-Kleintobel Kleintobel-------
Biberach Amriswilstrasse-------
Biberach Strölinweg-------
Biberach Erlenweg-------
Biberach Neue Heimat 5-------
Biberach Mittelbergstraße 9-------
Biberach-Bergerhausen Löcherstr.1-------
Bierstetten Schloßbühl 6-------
Blaubeuren-Pappelau Sotzenhauserstr.7-------
Bühlertal Wolfinstraße 16-------
Dornstadt-Tomerdingen Maienweg 9-------
Dürnau Dorfäckerweg 5-------
Eberhardzell Lilienweg------0,0
Ebersbach-Roßwälden Appenwiesen-------
Sonne und einige dicke Quellwolken, trocken.

14,4 bis 29,4 Grad
Ehingen Rosenstraße-------
Ehingen Zanderstraße-------
Ehingen Schlaufenbühl-------
Ehingen Schillerstraße-------
Ehingen-Herbertshofen Tobelweg 9-------
Eislingen Albstraße 125---0,6---
Regen Gewitter
Erbach-Bach Hauptstraße 24-------
Erlenmoos Haldenweg 15-------
Füramoos Hungersberg 1-------
Gutenzell Kleinser Berg 1-------
Gutenzell-Hürbel Bei der Sägmühle 1-------
Herbertingen Drosselweg0,0---0,0--
Sommer vom Feinsten!!!!
Herbertingen Hirschstrasse-------
Hochdorf-Schweinhausen Lindenweg 2-------
Hohentengen-Bremen Bremer Halde 40,0------
Horgenzell-Ringgenweiler Ringgenweiler 620------0,3
Hüttisheim Ulmer Weg 2-------
Illerkirchberg Mahdauweg 20-------
Illerrieden-Wangen Am Muckenberg 12-------
Immenstaad Stockwiesen 10-------
Inzigkofen Butzenweg 1-------
Isny Am Dreifingerbach 39-0,20,2---0,2
Kirchberg Rosenstr. 7-------
Kreuzthal-Steinberg-Alpe Im Kreuzbachthal 85------0,3
Langenau Wasserstr. 54-1-------
Langenenslingen Schattenweiler Str. 18-------
Bodennebel Gewitter
Leutkirch Unterer Auenweg 25-------
Leutkirch Nachtigallenweg 28-------
Leutkirch-Adrazhofen Bergstraße 20-------
Merklingen Millergasse 9-------
Mietingen Seerosenweg 10-------
Mietingen-Walpertshofen Bussenweg 31-------
Mittelbiberach-Reute Rindenmooser Straße 2-------
Moosburg Käserweg 5-------
Hochsommer.
Münsingen-Rietheim In der Lise 20----8,4--
Neresheim Alfred-Delp-Straße 8---0,4---
Regen Gewitter
Oberdischingen Normannenstraße 7-------
Ochsenhausen Ehrensberger Weg 5-------
Öpfingen Hauptstraße 99-------
Bodennebel
Ostrach Uhlandweg------6,5
Pfaffenhofen-Kadeltshofen Mühlbachstraße 4-------
Pfullendorf Am Schweizersbild ---54,0 k---
Rangendingen Donaustraße 19-------
Ravensburg Bleicherstraße-------
Ravensburg-Schmalegg St.-Magdalena-Ring 42------0,5
Ravensburg-Wernsreute Wernsreute 25-------
Ravensburg-Weststadt Karl-Erb-Ring 142-------
Regensburg Orleansstraße 3-------
Riedhausen Blütenweg 130,2-0,2----
Temp. + 11,7°C / + 29,0°C, Windböen N 12,9 km/h
Riedlingen Berliner Str. 41-------
Riedlingen-Neufra Panoramaweg-------
Riedlingen-Neufra Riedlinger Strasse-------
+ 15,9 Grad, 91 % LF, wolkenloser Himmel
Schelklingen-Gundershofen Schwarzer-Straße 14-------
Temp. zw. +10,3°C und +41,5°C. Meist viel Sonne und recht heiss.
Schemmerberg Drosselweg 9-------
Schwörstadt Schulstrasse 19-------
Seekirch Haldenberg 7-------
Sigmaringendorf Weingartenstraße 7-------
Tuttlingen-Möhringen Eßlinger Straße----13,5--
Ulm Eberhardtstraße 75-------
Ummendorf Tulpenweg-------
Ummendorf Friedrich-Schiller-Str.-------
Uttenweiler-Ahlen Seekircher Straße 8-------
Vöhringen (Schwarzwald) Drosselweg 3-------
Waldburg Kastanienweg11-------
Wangen-Bergerhöhe Berg 2------1,8
Warthausen An der Schloßhalde -------
Warthausen Schwabenwiesen -------
Warthausen-Barabein Barabein 20-------
Weingarten Laurastraße-------
+ 14,1 ° C um 7.00 Uhr, 965 hPa,
Weingarten Hoyerstraße-------
Weingarten Marienstraße-------
Wolfegg-Veesers Veesers 1-------
Wolpertswende Aulendorfer Str. 17------19,5

Stillgelegte Niederschlagsstationen    -    derzeit 50 Stationen

StationLetzte Meldung22.08.23.08.24.08.25.08.26.08.27.08.28.08.Bemerkung 25.08.
Allmannsweiler Eggatsweilerstr.2802.09.2014-------
Aulendorf-Rugetsweiler Erikaweg 325.07.2013-------
Aulendorf-Zollenreute Imterstraße 1209.02.2019-------
Bad Saulgau Willi-Burth-Straße19.09.2011-------
Bad Saulgau Eichendorffweg28.03.2013-------
Bad Saulgau Seewattenstraße 12815.01.2014-------
Bad Saulgau-Lampertsweiler Valentinstr. 2618.02.2015-------
Bad Schussenried-Steinhausen Drosselgasse 4/126.09.2012-------
Bad Waldsee-Michelwinnanden Michelberg 531.12.2014-------
Bad Waldsee-Osterhofen Hochwaldgasse 406.03.2015-------
Bad Waldsee-Steinach Hofraingasse 1510.11.2013-------
Bad Wurzach-Dietmanns Postweg 519.01.2019-------
Bad Wurzach-Haidgau Wengener Straße 507.10.2012-------
Bad Wurzach-Ziegelbach Ziegelbach-Greut 507.11.2014-------
Bergatreute Bolanden 113.02.2012-------
Betzenweiler Offinger Straße 505.01.2017-------
Burgrieden Am Nonnenberg 328.10.2013-------
Burgrieden-Rot Schmiedgasse 518.09.2013-------
Dettingen a. d. Iller Schleifweg 420.05.2019-------
Eberhardzell Schillerstraße05.07.2010-------
Ehingen Am Elzengraben17.06.2016-------
Gammertingen Schillerstraße 2216.01.2016-------
Griesingen Blumenstraße 906.10.2015-------
Günzburg Erlenbadweg 34 1/231.12.2010-------
Hoßkirch Kirchstraße 805.01.2018-------
Ingoldingen-Grodt Ingoldinger Weg 1919.11.2016-------
Kisslegg Kirchmoosstraße02.05.2011-------
Krauchenwies-Hausen Rosenrain 123.11.2013-------
Kressbronn Irisstraße 410.03.2010-------
Leutkirch-Ottmannshofen Spitalriedstraße 527.07.2012-------
Leutkirch-Rotis Rotis 5/208.05.2016-------
Leutkirch-Wuchzenhofen Untere Kirchstraße 18/119.09.2016-------
Mietingen Hangweg 1530.12.2017-------
Mössingen-Bästenhardt Weissdornweg 721.07.2014-------
Ostrach Heiligenberger Straße19.08.2013-------
Pfullendorf Ringstraße 18.03.2012-------
Ravensburg Olgastraße30.10.2016-------
Seltmans Amselweg 2209.04.2013-------
Stuttgart-Bad Cannstatt Beuthener Str. 6703.02.2013-------
Stuttgart-Möhringen Glashütter Weg 1023.04.2017-------
Stuttgart-Rohr Hirschsprung 307.11.2012-------
Talheim Im Schecken 2121.08.2016-------
Tannheim Eggmannstr. 42 22.10.2017-------
Tettnang-Ramsbach Jahnstr. 24/126.03.2011-------
Tuttlingen-Möhringen Belchenstraße01.01.2015-------
Ummendorf Bergstraße23.10.2017-------
Vogt Mühlwies 1822.05.2015-------
Wangen-Atzenberg Keplerweg 324.02.2019-------
Weingarten Bischof-Sproll-Straße30.06.2011-------
Wilhelmsdorf Riedhauser Straße 28.10.2012-------
Wilhelmsdorf Seefeld20.08.2013-------
Wurmlingen An der Steig 3014.10.2016-------
Die Niederschlagswerte des gewählten Tages lassen sich durch Klicken auf das Datum sortieren.
Die Angaben sind in l/m².

Wetterbeobachtungen Legende:

  • Regen
  • Nieselregen
  • Schneeregen
  • Schnee
  • Graupel
  • Eiskörner
  • Hagel
  • Bodennebel
  • Gewitter
  • Nebelnässe
  • Schneegriesel

Grafische Darstellung der Tagesniederschläge vom 25.08.2019

< 24.08.201926.08.2019 >Monats- und Jahresniederschlag


 
wetterstationen
wetterstationen
- derzeit 78 Stationen
niederschlagsdatenbank
wetterstationen
- kartographische Darstellung
niederschlagsdatenbank
niederschlagsstationen
- derzeit 110 Stationen
niederschlagsdatenbank
niederschlagsstationen
- kartographische Darstellung
 
 
Do. 7.30 Uhr - Fr. 7.30 Uhr (MEZ)
1.Füramoos
Hungersberg 1
2,7 l/m²
2.Biberach
Mittelbergstraße 9
1,5 l/m²
3.Bad Schussenried
Konradstraße
0,4 l/m²
 
  treffpunkt & service
--- Anzeigen --------------------------------
zugriffe:
insgesamt: 45.315.026
aktueller monat: 121.968
heute: 156
momentan online: 4
 
 
monatshöchstwert: 653.625
vorheriger monat: 372.551
gestern: 7.263
tageshöchstwert: 51.297
 
wetterwarte süd
 
konradstraße 3
info@wetterwarte-sued.com
roland roth
 
88427 bad schussenried